Time,TemperatureF,DewpointF,PressureIn,WindDirection,WindDirectionDegrees,WindSpeedMPH,WindSpeedGustMPH,Humidity,HourlyPrecipIn,Conditions,Clouds,dailyrainin,SoftwareType,DateUTC
2013-08-02 00:01:00,59.4,54.9,30.13,SSW,200,0.0,4.0,85,0.00,,,0.00,WeatherCatV1.15B25,2013-08-02 07:01:00,
2013-08-02 00:06:00,59.4,55.2,30.13,SSW,212,1.0,2.0,86,0.00,,,0.00,WeatherCatV1.15B25,2013-08-02 07:06:00,
2013-08-02 00:11:00,59.4,55.2,30.13,WSW,240,1.0,3.0,86,0.00,,,0.00,WeatherCatV1.15B25,2013-08-02 07:11:00,
2013-08-02 00:16:00,59.3,55.1,30.13,South,181,2.0,3.0,86,0.00,,,0.00,WeatherCatV1.15B25,2013-08-02 07:16:00,
2013-08-02 00:21:00,59.2,55.0,30.13,SSW,201,0.0,1.0,86,0.00,,,0.00,WeatherCatV1.15B25,2013-08-02 07:21:00,
2013-08-02 00:26:00,59.2,55.0,30.13,SE,142,1.0,1.0,86,0.00,,,0.00,WeatherCatV1.15B25,2013-08-02 07:26:00,
2013-08-02 00:31:00,59.2,55.0,30.13,SE,132,0.0,2.0,86,0.00,,,0.00,WeatherCatV1.15B25,2013-08-02 07:31:00,
2013-08-02 00:36:00,59.3,55.1,30.13,South,186,2.0,3.0,86,0.00,,,0.00,WeatherCatV1.15B25,2013-08-02 07:36:00,
2013-08-02 00:41:00,59.3,55.1,30.13,SSW,211,2.0,4.0,86,0.00,,,0.00,WeatherCatV1.15B25,2013-08-02 07:41:00,
2013-08-02 00:46:00,59.3,55.1,30.13,SSW,212,4.0,5.0,86,0.00,,,0.00,WeatherCatV1.15B25,2013-08-02 07:46:00,
2013-08-02 00:51:00,59.4,55.2,30.13,SSW,205,3.0,4.0,86,0.00,,,0.00,WeatherCatV1.15B25,2013-08-02 07:51:00,
2013-08-02 00:56:00,59.5,55.3,30.13,South,191,1.0,4.0,86,0.00,,,0.00,WeatherCatV1.15B25,2013-08-02 07:56:00,
2013-08-02 01:01:00,59.7,55.2,30.13,SSE,159,2.0,3.0,85,0.00,,,0.00,WeatherCatV1.15B25,2013-08-02 08:01:00,
2013-08-02 01:06:00,59.6,55.4,30.13,SW,236,4.0,6.0,86,0.00,,,0.00,WeatherCatV1.15B25,2013-08-02 08:06:00,
2013-08-02 01:11:00,59.5,55.3,30.13,South,179,2.0,3.0,86,0.00,,,0.00,WeatherCatV1.15B25,2013-08-02 08:11:00,
2013-08-02 01:16:00,59.4,55.2,30.13,South,184,1.0,3.0,86,0.00,,,0.00,WeatherCatV1.15B25,2013-08-02 08:16:00,
2013-08-02 01:21:00,59.4,55.2,30.13,SSW,204,1.0,2.0,86,0.00,,,0.00,WeatherCatV1.15B25,2013-08-02 08:21:00,
2013-08-02 01:26:00,59.4,55.2,30.13,SSE,153,4.0,5.0,86,0.00,,,0.00,WeatherCatV1.15B25,2013-08-02 08:26:00,
2013-08-02 01:31:00,59.4,55.2,30.13,SW,221,2.0,4.0,86,0.00,,,0.00,WeatherCatV1.15B25,2013-08-02 08:31:00,
2013-08-02 01:36:00,59.4,55.2,30.13,SSW,195,1.0,1.0,86,0.00,,,0.00,WeatherCatV1.15B25,2013-08-02 08:36:00,
2013-08-02 01:41:00,59.4,55.2,30.13,WSW,238,3.0,4.0,86,0.00,,,0.00,WeatherCatV1.15B25,2013-08-02 08:41:00,
2013-08-02 01:46:00,59.4,55.2,30.13,SSE,164,1.0,2.0,86,0.00,,,0.00,WeatherCatV1.15B25,2013-08-02 08:46:00,
2013-08-02 01:51:00,59.4,55.2,30.13,South,181,3.0,3.0,86,0.00,,,0.00,WeatherCatV1.15B25,2013-08-02 08:51:00,
2013-08-02 01:56:00,59.3,55.1,30.13,WSW,239,3.0,4.0,86,0.00,,,0.00,WeatherCatV1.15B25,2013-08-02 08:56:00,
2013-08-02 02:01:00,59.3,55.4,30.13,SE,133,1.0,3.0,87,0.00,,,0.00,WeatherCatV1.15B25,2013-08-02 09:01:00,
2013-08-02 02:06:00,59.3,55.1,30.13,SSE,148,2.0,3.0,86,0.00,,,0.00,WeatherCatV1.15B25,2013-08-02 09:06:00,
2013-08-02 02:11:00,59.3,55.1,30.13,South,191,3.0,5.0,86,0.00,,,0.00,WeatherCatV1.15B25,2013-08-02 09:11:00,
2013-08-02 02:16:00,59.3,55.1,30.13,SSW,193,4.0,6.0,86,0.00,,,0.00,WeatherCatV1.15B25,2013-08-02 09:16:00,
2013-08-02 02:21:00,59.2,55.0,30.13,SSW,201,3.0,5.0,86,0.00,,,0.00,WeatherCatV1.15B25,2013-08-02 09:21:00,
2013-08-02 02:26:00,59.2,55.0,30.13,South,181,5.0,6.0,86,0.00,,,0.00,WeatherCatV1.15B25,2013-08-02 09:26:00,
2013-08-02 02:31:00,59.1,54.9,30.13,SSW,198,4.0,4.0,86,0.00,,,0.00,WeatherCatV1.15B25,2013-08-02 09:31:00,
2013-08-02 02:36:00,59.1,54.9,30.13,SSW,207,4.0,8.0,86,0.00,,,0.00,WeatherCatV1.15B25,2013-08-02 09:36:00,
2013-08-02 02:41:00,59.0,54.8,30.13,SW,214,4.0,6.0,86,0.00,,,0.00,WeatherCatV1.15B25,2013-08-02 09:41:00,
2013-08-02 02:46:00,58.9,54.7,30.13,SSW,208,5.0,7.0,86,0.00,,,0.00,WeatherCatV1.15B25,2013-08-02 09:46:00,
2013-08-02 02:51:00,58.9,54.7,30.13,SSE,149,5.0,5.0,86,0.00,,,0.00,WeatherCatV1.15B25,2013-08-02 09:51:00,
2013-08-02 02:56:00,58.8,54.6,30.13,South,184,3.0,8.0,86,0.00,,,0.00,WeatherCatV1.15B25,2013-08-02 09:56:00,
2013-08-02 03:01:00,58.8,54.6,30.13,SW,218,7.0,10.0,86,0.00,,,0.00,WeatherCatV1.15B25,2013-08-02 10:01:00,
2013-08-02 03:05:00,58.7,54.5,30.13,South,187,6.0,12.0,86,0.00,,,0.00,WeatherCatV1.15B25,2013-08-02 10:05:00,
2013-08-02 03:06:00,58.7,54.5,30.13,SSW,196,4.0,8.0,86,0.00,,,0.00,WeatherCatV1.15B25,2013-08-02 10:06:00,
2013-08-02 03:10:00,58.7,54.5,30.13,South,185,6.0,10.0,86,0.00,,,0.00,WeatherCatV1.15B25,2013-08-02 10:10:00,
2013-08-02 03:15:00,58.6,54.4,30.13,South,182,5.0,6.0,86,0.00,,,0.00,WeatherCatV1.15B25,2013-08-02 10:15:00,
2013-08-02 03:20:00,58.6,54.7,30.13,South,169,4.0,7.0,87,0.00,,,0.00,WeatherCatV1.15B25,2013-08-02 10:20:00,
2013-08-02 03:25:00,58.5,54.6,30.13,South,173,4.0,6.0,87,0.00,,,0.00,WeatherCatV1.15B25,2013-08-02 10:25:00,
2013-08-02 03:30:00,58.5,54.6,30.13,South,187,5.0,8.0,87,0.00,,,0.00,WeatherCatV1.15B25,2013-08-02 10:30:00,
2013-08-02 03:35:00,58.5,54.6,30.13,South,171,5.0,6.0,87,0.00,,,0.00,WeatherCatV1.15B25,2013-08-02 10:35:00,
2013-08-02 03:40:00,58.4,54.5,30.13,South,188,4.0,5.0,87,0.00,,,0.00,WeatherCatV1.15B25,2013-08-02 10:40:00,
2013-08-02 03:45:00,58.4,54.5,30.13,South,179,4.0,7.0,87,0.00,,,0.00,WeatherCatV1.15B25,2013-08-02 10:45:00,
2013-08-02 03:50:00,58.4,54.5,30.13,South,176,4.0,6.0,87,0.00,,,0.00,WeatherCatV1.15B25,2013-08-02 10:50:00,
2013-08-02 03:55:00,58.4,54.5,30.13,South,175,4.0,6.0,87,0.00,,,0.00,WeatherCatV1.15B25,2013-08-02 10:55:00,
2013-08-02 04:00:00,58.4,54.5,30.13,South,181,4.0,6.0,87,0.00,,,0.00,WeatherCatV1.15B25,2013-08-02 11:00:00,
2013-08-02 04:05:00,58.3,54.4,30.13,South,189,4.0,6.0,87,0.00,,,0.00,WeatherCatV1.15B25,2013-08-02 11:05:00,
2013-08-02 04:10:00,58.3,54.4,30.13,South,172,3.0,3.0,87,0.00,,,0.00,WeatherCatV1.15B25,2013-08-02 11:10:00,
2013-08-02 04:15:00,58.2,54.3,30.13,SSE,166,3.0,3.0,87,0.00,,,0.00,WeatherCatV1.15B25,2013-08-02 11:15:00,
2013-08-02 04:20:00,58.2,54.3,30.13,SSE,163,3.0,8.0,87,0.00,,,0.00,WeatherCatV1.15B25,2013-08-02 11:20:00,
2013-08-02 04:25:00,58.2,54.3,30.12,SSE,165,5.0,10.0,87,0.00,,,0.00,WeatherCatV1.15B25,2013-08-02 11:25:00,
2013-08-02 04:30:00,58.2,54.3,30.13,South,182,6.0,9.0,87,0.00,,,0.00,WeatherCatV1.15B25,2013-08-02 11:30:00,
2013-08-02 04:35:00,58.1,54.6,30.13,South,179,5.0,9.0,88,0.00,,,0.00,WeatherCatV1.15B25,2013-08-02 11:35:00,
2013-08-02 04:40:00,58.1,54.6,30.13,South,180,5.0,8.0,88,0.00,,,0.00,WeatherCatV1.15B25,2013-08-02 11:40:00,
2013-08-02 04:45:00,58.0,54.5,30.13,South,178,5.0,5.0,88,0.00,,,0.00,WeatherCatV1.15B25,2013-08-02 11:45:00,
2013-08-02 04:50:00,58.1,54.6,30.13,South,171,4.0,6.0,88,0.00,,,0.00,WeatherCatV1.15B25,2013-08-02 11:50:00,
2013-08-02 04:55:00,58.0,54.5,30.13,South,171,4.0,5.0,88,0.00,,,0.00,WeatherCatV1.15B25,2013-08-02 11:55:00,
2013-08-02 05:00:00,58.1,54.6,30.13,South,170,4.0,4.0,88,0.00,,,0.00,WeatherCatV1.15B25,2013-08-02 12:00:00,
2013-08-02 05:05:00,58.0,54.5,30.13,SSE,165,3.0,5.0,88,0.00,,,0.00,WeatherCatV1.15B25,2013-08-02 12:05:00,
2013-08-02 05:10:00,58.0,54.5,30.13,South,175,3.0,7.0,88,0.00,,,0.00,WeatherCatV1.15B25,2013-08-02 12:10:00,
2013-08-02 05:15:00,58.0,54.5,30.13,South,170,4.0,8.0,88,0.00,,,0.00,WeatherCatV1.15B25,2013-08-02 12:15:00,
2013-08-02 05:20:00,58.0,54.5,30.13,South,173,5.0,8.0,88,0.00,,,0.00,WeatherCatV1.15B25,2013-08-02 12:20:00,
2013-08-02 05:25:00,58.0,54.5,30.13,South,173,4.0,6.0,88,0.00,,,0.00,WeatherCatV1.15B25,2013-08-02 12:25:00,
2013-08-02 05:30:00,58.0,54.5,30.13,South,181,4.0,6.0,88,0.00,,,0.00,WeatherCatV1.15B25,2013-08-02 12:30:00,
2013-08-02 05:35:00,58.0,54.2,30.13,South,186,4.0,6.0,87,0.00,,,0.00,WeatherCatV1.15B25,2013-08-02 12:35:00,
2013-08-02 05:40:00,58.0,54.2,30.13,SSW,195,4.0,5.0,87,0.00,,,0.00,WeatherCatV1.15B25,2013-08-02 12:40:00,
2013-08-02 05:45:00,57.9,54.1,30.13,South,177,3.0,6.0,87,0.00,,,0.00,WeatherCatV1.15B25,2013-08-02 12:45:00,
2013-08-02 05:50:00,58.0,54.2,30.14,South,172,4.0,6.0,87,0.00,,,0.00,WeatherCatV1.15B25,2013-08-02 12:50:00,
2013-08-02 05:55:00,58.0,54.2,30.14,South,169,3.0,5.0,87,0.00,,,0.00,WeatherCatV1.15B25,2013-08-02 12:55:00,
2013-08-02 06:00:00,58.0,54.2,30.14,South,188,2.0,4.0,87,0.00,,,0.00,WeatherCatV1.15B25,2013-08-02 13:00:00,
2013-08-02 06:05:00,58.0,54.2,30.14,SSW,206,3.0,6.0,87,0.00,,,0.00,WeatherCatV1.15B25,2013-08-02 13:05:00,
2013-08-02 06:10:00,58.0,54.2,30.14,SSW,202,3.0,3.0,87,0.00,,,0.00,WeatherCatV1.15B25,2013-08-02 13:10:00,
2013-08-02 06:15:00,57.9,54.1,30.14,SSW,195,3.0,4.0,87,0.00,,,0.00,WeatherCatV1.15B25,2013-08-02 13:15:00,
2013-08-02 06:20:00,57.9,54.1,30.14,South,189,3.0,4.0,87,0.00,,,0.00,WeatherCatV1.15B25,2013-08-02 13:20:00,
2013-08-02 06:25:00,57.9,54.1,30.14,South,189,4.0,4.0,87,0.00,,,0.00,WeatherCatV1.15B25,2013-08-02 13:25:00,
2013-08-02 06:30:00,58.0,54.2,30.14,SSW,195,3.0,4.0,87,0.00,,,0.00,WeatherCatV1.15B25,2013-08-02 13:30:00,
2013-08-02 06:35:00,57.9,54.1,30.14,South,175,3.0,4.0,87,0.00,,,0.00,WeatherCatV1.15B25,2013-08-02 13:35:00,
2013-08-02 06:40:00,58.0,53.8,30.14,South,187,3.0,4.0,86,0.00,,,0.00,WeatherCatV1.15B25,2013-08-02 13:40:00,
2013-08-02 06:45:00,58.0,53.8,30.15,South,188,3.0,4.0,86,0.00,,,0.00,WeatherCatV1.15B25,2013-08-02 13:45:00,
2013-08-02 06:50:00,58.1,53.9,30.15,SSW,194,3.0,6.0,86,0.00,,,0.00,WeatherCatV1.15B25,2013-08-02 13:50:00,
2013-08-02 06:55:00,58.2,54.0,30.15,South,191,3.0,3.0,86,0.00,,,0.00,WeatherCatV1.15B25,2013-08-02 13:55:00,
2013-08-02 07:00:00,58.2,54.0,30.15,South,182,3.0,3.0,86,0.00,,,0.00,WeatherCatV1.15B25,2013-08-02 14:00:00,
2013-08-02 07:05:00,58.3,54.1,30.15,South,173,3.0,5.0,86,0.00,,,0.00,WeatherCatV1.15B25,2013-08-02 14:05:00,
2013-08-02 07:10:00,58.3,54.1,30.15,South,172,3.0,6.0,86,0.00,,,0.00,WeatherCatV1.15B25,2013-08-02 14:10:00,
2013-08-02 07:15:00,58.3,54.1,30.15,South,171,3.0,4.0,86,0.00,,,0.00,WeatherCatV1.15B25,2013-08-02 14:15:00,
2013-08-02 07:20:00,58.4,54.2,30.15,South,175,3.0,4.0,86,0.00,,,0.00,WeatherCatV1.15B25,2013-08-02 14:20:00,
2013-08-02 07:25:00,58.4,54.2,30.16,SSE,151,2.0,2.0,86,0.00,,,0.00,WeatherCatV1.15B25,2013-08-02 14:25:00,
2013-08-02 07:30:00,58.4,54.2,30.16,SSE,148,1.0,3.0,86,0.00,,,0.00,WeatherCatV1.15B25,2013-08-02 14:30:00,
2013-08-02 07:35:00,58.5,54.3,30.16,SSE,155,1.0,2.0,86,0.00,,,0.00,WeatherCatV1.15B25,2013-08-02 14:35:00,
2013-08-02 07:40:00,58.5,54.3,30.16,SSE,147,2.0,3.0,86,0.00,,,0.00,WeatherCatV1.15B25,2013-08-02 14:40:00,
2013-08-02 07:45:00,58.5,54.3,30.16,SE,146,2.0,3.0,86,0.00,,,0.00,WeatherCatV1.15B25,2013-08-02 14:45:00,
2013-08-02 07:50:00,58.6,54.4,30.16,SE,142,2.0,3.0,86,0.00,,,0.00,WeatherCatV1.15B25,2013-08-02 14:50:00,
2013-08-02 07:55:00,58.7,54.5,30.16,SSE,157,1.0,0.0,86,0.00,,,0.00,WeatherCatV1.15B25,2013-08-02 14:55:00,
2013-08-02 08:00:00,58.8,54.6,30.16,SSE,153,1.0,1.0,86,0.00,,,0.00,WeatherCatV1.15B25,2013-08-02 15:00:00,
2013-08-02 08:05:00,58.8,54.3,30.16,SSE,149,2.0,4.0,85,0.00,,,0.00,WeatherCatV1.15B25,2013-08-02 15:05:00,
2013-08-02 08:10:00,58.8,54.6,30.16,SSE,149,2.0,5.0,86,0.00,,,0.00,WeatherCatV1.15B25,2013-08-02 15:10:00,
2013-08-02 08:15:00,58.8,54.6,30.16,SSE,151,3.0,3.0,86,0.00,,,0.00,WeatherCatV1.15B25,2013-08-02 15:15:00,
2013-08-02 08:20:00,58.9,54.7,30.16,SSE,153,2.0,4.0,86,0.00,,,0.00,WeatherCatV1.15B25,2013-08-02 15:20:00,
2013-08-02 08:25:00,59.1,54.9,30.16,South,180,3.0,8.0,86,0.00,,,0.00,WeatherCatV1.15B25,2013-08-02 15:25:00,
2013-08-02 08:30:00,59.2,54.7,30.16,South,191,4.0,10.0,85,0.00,,,0.00,WeatherCatV1.15B25,2013-08-02 15:30:00,
2013-08-02 08:35:00,59.3,54.5,30.16,South,180,5.0,10.0,84,0.00,,,0.00,WeatherCatV1.15B25,2013-08-02 15:35:00,
2013-08-02 08:40:00,59.3,54.5,30.16,SSE,167,5.0,6.0,84,0.00,,,0.00,WeatherCatV1.15B25,2013-08-02 15:40:00,
2013-08-02 08:45:00,59.3,54.5,30.16,South,179,5.0,8.0,84,0.00,,,0.00,WeatherCatV1.15B25,2013-08-02 15:45:00,
2013-08-02 08:50:00,59.3,54.5,30.16,South,176,5.0,9.0,84,0.00,,,0.00,WeatherCatV1.15B25,2013-08-02 15:50:00,
2013-08-02 08:55:00,59.4,54.6,30.16,South,173,4.0,7.0,84,0.00,,,0.00,WeatherCatV1.15B25,2013-08-02 15:55:00,
2013-08-02 09:09:00,59.4,54.6,30.16,South,178,4.0,7.0,84,0.00,,,0.00,WeatherCatV1.15B25,2013-08-02 16:09:00,
2013-08-02 09:14:00,59.9,54.7,30.16,SSW,196,2.0,5.0,83,0.00,,,0.00,WeatherCatV1.15B25,2013-08-02 16:14:00,
2013-08-02 09:19:00,59.9,54.7,30.16,South,176,4.0,6.0,83,0.00,,,0.00,WeatherCatV1.15B25,2013-08-02 16:19:00,
2013-08-02 09:24:00,60.0,54.8,30.16,SW,224,3.0,5.0,83,0.00,,,0.00,WeatherCatV1.15B25,2013-08-02 16:24:00,
2013-08-02 09:29:00,60.0,54.8,30.16,SSW,194,2.0,4.0,83,0.00,,,0.00,WeatherCatV1.15B25,2013-08-02 16:29:00,
2013-08-02 09:34:00,60.1,54.9,30.16,South,169,5.0,10.0,83,0.00,,,0.00,WeatherCatV1.15B25,2013-08-02 16:34:00,
2013-08-02 09:39:00,60.1,54.6,30.16,SSE,162,2.0,10.0,82,0.00,,,0.00,WeatherCatV1.15B25,2013-08-02 16:39:00,
2013-08-02 09:44:00,60.2,54.7,30.16,SSW,205,9.0,9.0,82,0.00,,,0.00,WeatherCatV1.15B25,2013-08-02 16:44:00,
2013-08-02 09:49:00,60.2,54.7,30.16,South,183,2.0,6.0,82,0.00,,,0.00,WeatherCatV1.15B25,2013-08-02 16:49:00,
2013-08-02 09:54:00,60.4,54.9,30.16,SSW,208,3.0,8.0,82,0.00,,,0.00,WeatherCatV1.15B25,2013-08-02 16:54:00,
2013-08-02 09:59:00,60.5,54.6,30.16,SSE,166,7.0,9.0,81,0.00,,,0.00,WeatherCatV1.15B25,2013-08-02 16:59:00,
2013-08-02 10:04:00,60.7,54.8,30.16,SSE,149,6.0,8.0,81,0.00,,,0.00,WeatherCatV1.15B25,2013-08-02 17:04:00,
2013-08-02 10:09:00,60.7,54.8,30.16,SSE,155,1.0,3.0,81,0.00,,,0.00,WeatherCatV1.15B25,2013-08-02 17:09:00,
2013-08-02 10:14:00,60.9,55.0,30.16,SSW,204,7.0,8.0,81,0.00,,,0.00,WeatherCatV1.15B25,2013-08-02 17:14:00,
2013-08-02 10:19:00,60.9,54.7,30.16,SSE,149,9.0,12.0,80,0.00,,,0.00,WeatherCatV1.15B25,2013-08-02 17:19:00,
2013-08-02 10:24:00,60.9,54.7,30.16,SW,236,6.0,7.0,80,0.00,,,0.00,WeatherCatV1.15B25,2013-08-02 17:24:00,
2013-08-02 10:29:00,61.0,54.4,30.16,South,176,9.0,10.0,79,0.00,,,0.00,WeatherCatV1.15B25,2013-08-02 17:29:00,
2013-08-02 10:34:00,61.3,54.7,30.16,South,180,4.0,7.0,79,0.00,,,0.00,WeatherCatV1.15B25,2013-08-02 17:34:00,
2013-08-02 10:39:00,61.2,55.0,30.16,SW,215,2.0,4.0,80,0.00,,,0.00,WeatherCatV1.15B25,2013-08-02 17:39:00,
2013-08-02 10:44:00,61.1,55.2,30.16,South,181,1.0,4.0,81,0.00,,,0.00,WeatherCatV1.15B25,2013-08-02 17:44:00,
2013-08-02 10:49:00,61.1,55.6,30.16,SSW,212,1.0,2.0,82,0.00,,,0.00,WeatherCatV1.15B25,2013-08-02 17:49:00,
2013-08-02 10:54:00,61.0,55.1,30.16,South,171,3.0,7.0,81,0.00,,,0.00,WeatherCatV1.15B25,2013-08-02 17:54:00,
2013-08-02 10:59:00,60.7,55.2,30.16,SW,222,4.0,4.0,82,0.00,,,0.00,WeatherCatV1.15B25,2013-08-02 17:59:00,
2013-08-02 11:04:00,60.5,55.6,30.16,SW,233,3.0,4.0,84,0.00,,,0.00,WeatherCatV1.15B25,2013-08-02 18:04:00,
2013-08-02 11:09:00,60.2,55.7,30.16,SW,217,5.0,5.0,85,0.00,,,0.00,WeatherCatV1.15B25,2013-08-02 18:09:00,
2013-08-02 11:14:00,60.0,55.8,30.16,SW,226,0.0,3.0,86,0.00,,,0.00,WeatherCatV1.15B25,2013-08-02 18:14:00,
2013-08-02 11:19:00,60.1,56.2,30.17,SW,222,2.0,2.0,87,0.00,,,0.00,WeatherCatV1.15B25,2013-08-02 18:19:00,
2013-08-02 11:24:00,60.0,56.1,30.17,WSW,248,1.0,3.0,87,0.00,,,0.01,WeatherCatV1.15B25,2013-08-02 18:24:00,
2013-08-02 11:29:00,59.9,56.3,30.16,WSW,248,3.0,3.0,88,0.00,,,0.01,WeatherCatV1.15B25,2013-08-02 18:29:00,
2013-08-02 11:34:00,59.9,56.6,30.16,West,273,1.0,4.0,89,0.00,,,0.01,WeatherCatV1.15B25,2013-08-02 18:34:00,
2013-08-02 11:39:00,60.1,56.8,30.17,West,274,0.0,0.0,89,0.00,,,0.01,WeatherCatV1.15B25,2013-08-02 18:39:00,
2013-08-02 11:44:00,60.5,56.6,30.17,SW,218,0.0,2.0,87,0.00,,,0.01,WeatherCatV1.15B25,2013-08-02 18:44:00,
2013-08-02 11:49:00,60.5,56.0,30.17,West,273,1.0,3.0,85,0.00,,,0.01,WeatherCatV1.15B25,2013-08-02 18:49:00,
2013-08-02 11:54:00,60.6,56.7,30.17,SSE,162,2.0,3.0,87,0.00,,,0.01,WeatherCatV1.15B25,2013-08-02 18:54:00,
2013-08-02 11:59:00,60.9,57.0,30.17,SW,225,2.0,3.0,87,0.00,,,0.01,WeatherCatV1.15B25,2013-08-02 18:59:00,
2013-08-02 12:04:00,60.8,56.3,30.17,South,181,2.0,3.0,85,0.00,,,0.01,WeatherCatV1.15B25,2013-08-02 19:04:00,
2013-08-02 12:09:00,60.7,56.5,30.17,WNW,294,1.0,5.0,86,0.00,,,0.01,WeatherCatV1.15B25,2013-08-02 19:09:00,
2013-08-02 12:14:00,60.7,56.5,30.17,SSW,202,2.0,4.0,86,0.00,,,0.01,WeatherCatV1.15B25,2013-08-02 19:14:00,
2013-08-02 12:19:00,60.6,56.7,30.17,South,173,1.0,3.0,87,0.00,,,0.01,WeatherCatV1.15B25,2013-08-02 19:19:00,
2013-08-02 12:24:00,60.4,56.5,30.17,West,276,0.0,5.0,87,0.00,,,0.01,WeatherCatV1.15B25,2013-08-02 19:24:00,
2013-08-02 12:29:00,60.3,56.7,30.17,SSW,194,2.0,2.0,88,0.00,,,0.01,WeatherCatV1.15B25,2013-08-02 19:29:00,
2013-08-02 12:34:00,60.2,56.6,30.17,West,259,1.0,4.0,88,0.00,,,0.01,WeatherCatV1.15B25,2013-08-02 19:34:00,
2013-08-02 12:39:00,60.1,56.5,30.17,WSW,239,4.0,5.0,88,0.00,,,0.01,WeatherCatV1.15B25,2013-08-02 19:39:00,
2013-08-02 12:44:00,60.2,56.9,30.17,WSW,243,4.0,4.0,89,0.00,,,0.01,WeatherCatV1.15B25,2013-08-02 19:44:00,
2013-08-02 12:49:00,60.0,56.4,30.17,SW,222,3.0,7.0,88,0.00,,,0.01,WeatherCatV1.15B25,2013-08-02 19:49:00,
2013-08-02 12:54:00,59.9,56.6,30.17,South,176,2.0,4.0,89,0.00,,,0.01,WeatherCatV1.15B25,2013-08-02 19:54:00,
2013-08-02 12:59:00,59.8,56.5,30.17,SW,236,1.0,3.0,89,0.00,,,0.01,WeatherCatV1.15B25,2013-08-02 19:59:00,
2013-08-02 13:04:00,59.7,56.4,30.17,SW,226,2.0,2.0,89,0.00,,,0.01,WeatherCatV1.15B25,2013-08-02 20:04:00,
2013-08-02 13:09:00,59.5,55.9,30.17,West,266,1.0,4.0,88,0.00,,,0.01,WeatherCatV1.15B25,2013-08-02 20:09:00,
2013-08-02 13:14:00,59.5,56.3,30.17,WSW,246,2.0,2.0,89,0.00,,,0.02,WeatherCatV1.15B25,2013-08-02 20:14:00,
2013-08-02 13:19:00,59.6,56.4,30.17,South,191,2.0,3.0,89,0.00,,,0.02,WeatherCatV1.15B25,2013-08-02 20:19:00,
2013-08-02 13:24:00,59.7,56.4,30.17,WSW,238,3.0,3.0,89,0.00,,,0.02,WeatherCatV1.15B25,2013-08-02 20:24:00,
2013-08-02 13:29:00,59.8,56.9,30.17,WSW,249,0.0,1.0,90,0.00,,,0.02,WeatherCatV1.15B25,2013-08-02 20:29:00,
2013-08-02 13:34:00,59.7,56.4,30.18,WNW,288,2.0,2.0,89,0.00,,,0.03,WeatherCatV1.15B25,2013-08-02 20:34:00,
2013-08-02 13:39:00,59.8,56.5,30.18,NNW,330,2.0,3.0,89,0.00,,,0.03,WeatherCatV1.15B25,2013-08-02 20:39:00,
2013-08-02 13:44:00,59.8,56.9,30.18,WSW,248,0.0,0.0,90,0.00,,,0.03,WeatherCatV1.15B25,2013-08-02 20:44:00,
2013-08-02 13:49:00,59.9,56.6,30.18,SW,236,0.0,1.0,89,0.00,,,0.03,WeatherCatV1.15B25,2013-08-02 20:49:00,
2013-08-02 13:54:00,59.9,56.6,30.18,WNW,298,2.0,2.0,89,0.00,,,0.03,WeatherCatV1.15B25,2013-08-02 20:54:00,
2013-08-02 13:59:00,60.1,57.2,30.18,SW,225,2.0,2.0,90,0.00,,,0.03,WeatherCatV1.15B25,2013-08-02 20:59:00,
2013-08-02 14:04:00,60.3,56.7,30.18,WSW,256,1.0,1.0,88,0.00,,,0.04,WeatherCatV1.15B25,2013-08-02 21:04:00,
2013-08-02 14:09:00,60.1,56.5,30.18,NW,308,2.0,2.0,88,0.00,,,0.04,WeatherCatV1.15B25,2013-08-02 21:09:00,
2013-08-02 14:14:00,59.8,56.5,30.18,West,269,1.0,3.0,89,0.00,,,0.04,WeatherCatV1.15B25,2013-08-02 21:14:00,
2013-08-02 14:19:00,59.7,56.8,30.18,West,269,1.0,1.0,90,0.00,,,0.04,WeatherCatV1.15B25,2013-08-02 21:19:00,
2013-08-02 14:24:00,59.8,57.2,30.18,SSW,208,1.0,1.0,91,0.00,,,0.04,WeatherCatV1.15B25,2013-08-02 21:24:00,
2013-08-02 14:29:00,60.2,56.9,30.18,SSE,158,0.0,0.0,89,0.00,,,0.04,WeatherCatV1.15B25,2013-08-02 21:29:00,
2013-08-02 14:34:00,60.3,57.0,30.18,SSW,193,0.0,0.0,89,0.00,,,0.04,WeatherCatV1.15B25,2013-08-02 21:34:00,
2013-08-02 14:39:00,60.3,57.0,30.18,WSW,249,0.0,1.0,89,0.00,,,0.04,WeatherCatV1.15B25,2013-08-02 21:39:00,
2013-08-02 14:44:00,60.3,57.4,30.18,WSW,246,0.0,1.0,90,0.00,,,0.04,WeatherCatV1.15B25,2013-08-02 21:44:00,
2013-08-02 14:49:00,60.4,57.5,30.18,SW,215,0.0,2.0,90,0.00,,,0.04,WeatherCatV1.15B25,2013-08-02 21:49:00,
2013-08-02 14:54:00,60.4,57.1,30.18,West,260,0.0,0.0,89,0.00,,,0.04,WeatherCatV1.15B25,2013-08-02 21:54:00,
2013-08-02 14:59:00,60.3,57.0,30.18,SW,222,0.0,0.0,89,0.00,,,0.04,WeatherCatV1.15B25,2013-08-02 21:59:00,
2013-08-02 15:04:00,60.1,56.8,30.18,SSW,212,3.0,4.0,89,0.00,,,0.04,WeatherCatV1.15B25,2013-08-02 22:04:00,
2013-08-02 15:09:00,59.9,56.6,30.18,SW,224,2.0,3.0,89,0.00,,,0.04,WeatherCatV1.15B25,2013-08-02 22:09:00,
2013-08-02 15:14:00,60.0,57.1,30.18,SW,214,3.0,4.0,90,0.00,,,0.04,WeatherCatV1.15B25,2013-08-02 22:14:00,
2013-08-02 15:19:00,59.9,57.0,30.18,WSW,239,2.0,3.0,90,0.00,,,0.04,WeatherCatV1.15B25,2013-08-02 22:19:00,
2013-08-02 15:24:00,59.8,56.9,30.18,South,190,1.0,2.0,90,0.00,,,0.04,WeatherCatV1.15B25,2013-08-02 22:24:00,
2013-08-02 15:29:00,59.7,57.1,30.18,South,191,1.0,3.0,91,0.00,,,0.04,WeatherCatV1.15B25,2013-08-02 22:29:00,
2013-08-02 15:34:00,59.6,57.0,30.18,WSW,253,1.0,3.0,91,0.00,,,0.04,WeatherCatV1.15B25,2013-08-02 22:34:00,
2013-08-02 15:39:00,59.5,56.9,30.18,WSW,243,2.0,3.0,91,0.00,,,0.05,WeatherCatV1.15B25,2013-08-02 22:39:00,
2013-08-02 15:44:00,59.3,57.0,30.18,SSW,211,1.0,3.0,92,0.09,,,0.06,WeatherCatV1.15B25,2013-08-02 22:44:00,
2013-08-02 15:49:00,59.6,57.6,30.18,WSW,238,2.0,2.0,93,0.09,,,0.06,WeatherCatV1.15B25,2013-08-02 22:49:00,
2013-08-02 15:54:00,59.6,57.3,30.18,WSW,253,0.0,2.0,92,0.05,,,0.06,WeatherCatV1.15B25,2013-08-02 22:54:00,
2013-08-02 15:59:00,59.5,57.5,30.18,SSW,194,0.0,1.0,93,0.05,,,0.07,WeatherCatV1.15B25,2013-08-02 22:59:00,
2013-08-02 16:04:00,59.6,57.6,30.18,SW,236,0.0,0.0,93,0.05,,,0.07,WeatherCatV1.15B25,2013-08-02 23:04:00,
2013-08-02 16:09:00,59.6,57.6,30.18,WSW,242,1.0,1.0,93,0.04,,,0.07,WeatherCatV1.15B25,2013-08-02 23:09:00,
2013-08-02 16:14:00,59.4,57.4,30.18,SW,235,0.0,0.0,93,0.00,,,0.07,WeatherCatV1.15B25,2013-08-02 23:14:00,
2013-08-02 16:19:00,59.2,57.2,30.18,WSW,249,3.0,3.0,93,0.00,,,0.07,WeatherCatV1.15B25,2013-08-02 23:19:00,
2013-08-02 16:24:00,59.3,57.3,30.18,SW,233,2.0,4.0,93,0.00,,,0.07,WeatherCatV1.15B25,2013-08-02 23:24:00,
2013-08-02 16:29:00,59.2,57.2,30.18,WSW,239,1.0,2.0,93,0.00,,,0.07,WeatherCatV1.15B25,2013-08-02 23:29:00,
2013-08-02 16:34:00,59.1,57.1,30.18,SSE,162,2.0,2.0,93,0.00,,,0.07,WeatherCatV1.15B25,2013-08-02 23:34:00,
2013-08-02 16:39:00,59.0,57.3,30.18,SSW,208,2.0,2.0,94,0.00,,,0.07,WeatherCatV1.15B25,2013-08-02 23:39:00,
2013-08-02 16:44:00,58.9,57.2,30.18,SSW,201,0.0,1.0,94,0.00,,,0.07,WeatherCatV1.15B25,2013-08-02 23:44:00,
2013-08-02 16:49:00,59.2,57.8,30.18,SW,233,0.0,0.0,95,0.00,,,0.07,WeatherCatV1.15B25,2013-08-02 23:49:00,
2013-08-02 16:54:00,59.4,57.7,30.18,South,179,1.0,1.0,94,0.00,,,0.07,WeatherCatV1.15B25,2013-08-02 23:54:00,
2013-08-02 16:59:00,59.3,57.6,30.18,SSE,159,0.0,1.0,94,0.00,,,0.07,WeatherCatV1.15B25,2013-08-02 23:59:00,
2013-08-02 17:04:00,59.4,57.7,30.18,SSW,196,2.0,2.0,94,0.00,,,0.07,WeatherCatV1.15B25,2013-08-03 00:04:00,
2013-08-02 17:09:00,59.3,57.6,30.18,SSE,153,0.0,2.0,94,0.00,,,0.07,WeatherCatV1.15B25,2013-08-03 00:09:00,
2013-08-02 17:14:00,59.3,57.6,30.18,SSE,162,2.0,2.0,94,0.00,,,0.07,WeatherCatV1.15B25,2013-08-03 00:14:00,
2013-08-02 17:19:00,59.3,57.6,30.17,SSE,159,3.0,3.0,94,0.00,,,0.07,WeatherCatV1.15B25,2013-08-03 00:19:00,
2013-08-02 17:24:00,59.5,58.1,30.17,SSE,165,0.0,1.0,95,0.00,,,0.07,WeatherCatV1.15B25,2013-08-03 00:24:00,
2013-08-02 17:29:00,59.6,57.9,30.17,SSE,162,1.0,3.0,94,0.00,,,0.07,WeatherCatV1.15B25,2013-08-03 00:29:00,
2013-08-02 17:34:00,59.5,57.8,30.17,South,177,2.0,3.0,94,0.00,,,0.07,WeatherCatV1.15B25,2013-08-03 00:34:00,
2013-08-02 17:39:00,59.5,57.8,30.17,SSE,153,1.0,2.0,94,0.00,,,0.07,WeatherCatV1.15B25,2013-08-03 00:39:00,
2013-08-02 17:44:00,59.6,58.2,30.17,SE,142,2.0,2.0,95,0.00,,,0.07,WeatherCatV1.15B25,2013-08-03 00:44:00,
2013-08-02 17:49:00,59.6,57.9,30.17,SE,143,2.0,2.0,94,0.00,,,0.07,WeatherCatV1.15B25,2013-08-03 00:49:00,
2013-08-02 17:54:00,59.5,57.8,30.17,SSE,150,1.0,2.0,94,0.00,,,0.07,WeatherCatV1.15B25,2013-08-03 00:54:00,
2013-08-02 17:59:00,59.5,57.8,30.17,SE,146,1.0,2.0,94,0.00,,,0.07,WeatherCatV1.15B25,2013-08-03 00:59:00,
2013-08-02 18:04:00,59.6,57.9,30.17,SSE,153,3.0,3.0,94,0.00,,,0.07,WeatherCatV1.15B25,2013-08-03 01:04:00,
2013-08-02 18:09:00,59.5,57.8,30.17,SSE,156,1.0,2.0,94,0.00,,,0.07,WeatherCatV1.15B25,2013-08-03 01:09:00,
2013-08-02 18:14:00,59.6,57.9,30.17,SE,146,1.0,2.0,94,0.00,,,0.07,WeatherCatV1.15B25,2013-08-03 01:14:00,
2013-08-02 18:19:00,59.7,58.0,30.17,SW,233,2.0,2.0,94,0.00,,,0.07,WeatherCatV1.15B25,2013-08-03 01:19:00,
2013-08-02 18:24:00,59.7,58.0,30.17,SSE,156,0.0,2.0,94,0.00,,,0.07,WeatherCatV1.15B25,2013-08-03 01:24:00,
2013-08-02 18:29:00,59.6,57.6,30.17,SW,224,2.0,3.0,93,0.00,,,0.07,WeatherCatV1.15B25,2013-08-03 01:29:00,
2013-08-02 18:34:00,59.7,58.0,30.17,WSW,243,1.0,2.0,94,0.00,,,0.07,WeatherCatV1.15B25,2013-08-03 01:34:00,
2013-08-02 18:39:00,59.6,57.9,30.17,SE,146,0.0,2.0,94,0.00,,,0.07,WeatherCatV1.15B25,2013-08-03 01:39:00,
2013-08-02 18:44:00,59.6,57.9,30.17,SSW,193,2.0,2.0,94,0.00,,,0.07,WeatherCatV1.15B25,2013-08-03 01:44:00,
2013-08-02 18:49:00,59.6,57.6,30.17,SSW,201,2.0,3.0,93,0.00,,,0.07,WeatherCatV1.15B25,2013-08-03 01:49:00,
2013-08-02 18:54:00,59.6,57.9,30.17,SSE,156,2.0,2.0,94,0.00,,,0.07,WeatherCatV1.15B25,2013-08-03 01:54:00,
2013-08-02 18:59:00,59.6,57.9,30.17,SSE,150,2.0,3.0,94,0.00,,,0.07,WeatherCatV1.15B25,2013-08-03 01:59:00,
2013-08-02 19:04:00,59.7,58.0,30.17,SE,140,0.0,2.0,94,0.00,,,0.07,WeatherCatV1.15B25,2013-08-03 02:04:00,
2013-08-02 19:09:00,59.7,58.0,30.17,SSE,153,0.0,2.0,94,0.00,,,0.07,WeatherCatV1.15B25,2013-08-03 02:09:00,
2013-08-02 19:14:00,59.7,58.0,30.17,SE,127,2.0,2.0,94,0.00,,,0.07,WeatherCatV1.15B25,2013-08-03 02:14:00,
2013-08-02 19:19:00,59.7,58.0,30.17,SSE,149,0.0,4.0,94,0.00,,,0.07,WeatherCatV1.15B25,2013-08-03 02:19:00,
2013-08-02 19:24:00,59.5,57.8,30.17,South,187,2.0,2.0,94,0.00,,,0.07,WeatherCatV1.15B25,2013-08-03 02:24:00,
2013-08-02 19:29:00,59.6,57.9,30.17,SW,235,0.0,0.0,94,0.00,,,0.07,WeatherCatV1.15B25,2013-08-03 02:29:00,
2013-08-02 19:34:00,59.6,57.9,30.17,SSW,211,1.0,2.0,94,0.00,,,0.07,WeatherCatV1.15B25,2013-08-03 02:34:00,
2013-08-02 19:39:00,59.5,57.5,30.17,South,172,2.0,3.0,93,0.00,,,0.07,WeatherCatV1.15B25,2013-08-03 02:39:00,
2013-08-02 19:44:00,59.5,57.5,30.17,SW,236,1.0,2.0,93,0.00,,,0.07,WeatherCatV1.15B25,2013-08-03 02:44:00,
2013-08-02 19:49:00,59.5,57.5,30.17,SE,140,1.0,2.0,93,0.00,,,0.07,WeatherCatV1.15B25,2013-08-03 02:49:00,
2013-08-02 19:54:00,59.4,57.4,30.17,SSW,194,1.0,2.0,93,0.00,,,0.07,WeatherCatV1.15B25,2013-08-03 02:54:00,
2013-08-02 19:59:00,59.4,57.4,30.17,SSW,208,1.0,1.0,93,0.00,,,0.07,WeatherCatV1.15B25,2013-08-03 02:59:00,
2013-08-02 20:04:00,59.4,57.4,30.17,SE,136,1.0,1.0,93,0.00,,,0.07,WeatherCatV1.15B25,2013-08-03 03:04:00,
2013-08-02 20:10:00,59.4,57.7,30.17,SE,128,1.0,3.0,94,0.00,,,0.07,WeatherCatV1.15B25,2013-08-03 03:10:00,
2013-08-02 20:15:00,59.4,57.7,30.17,SE,129,0.0,1.0,94,0.00,,,0.07,WeatherCatV1.15B25,2013-08-03 03:15:00,
2013-08-02 20:20:00,59.3,57.6,30.17,ESE,115,0.0,1.0,94,0.00,,,0.07,WeatherCatV1.15B25,2013-08-03 03:20:00,
2013-08-02 20:25:00,59.3,57.6,30.17,ESE,115,0.0,0.0,94,0.00,,,0.07,WeatherCatV1.15B25,2013-08-03 03:25:00,
2013-08-02 20:30:00,59.3,57.6,30.18,SE,131,0.0,0.0,94,0.00,,,0.07,WeatherCatV1.15B25,2013-08-03 03:30:00,
2013-08-02 20:35:00,59.2,57.5,30.18,ESE,121,0.0,1.0,94,0.00,,,0.07,WeatherCatV1.15B25,2013-08-03 03:35:00,
2013-08-02 20:40:00,59.2,57.5,30.18,ESE,121,0.0,0.0,94,0.00,,,0.07,WeatherCatV1.15B25,2013-08-03 03:40:00,
2013-08-02 20:45:00,59.1,57.4,30.18,East,79,0.0,2.0,94,0.00,,,0.07,WeatherCatV1.15B25,2013-08-03 03:45:00,
2013-08-02 20:50:00,59.0,57.6,30.18,SE,141,1.0,2.0,95,0.00,,,0.07,WeatherCatV1.15B25,2013-08-03 03:50:00,
2013-08-02 20:55:00,59.0,57.6,30.18,SSE,163,0.0,1.0,95,0.00,,,0.07,WeatherCatV1.15B25,2013-08-03 03:55:00,
2013-08-02 21:00:00,59.0,57.6,30.18,SSE,166,0.0,0.0,95,0.00,,,0.07,WeatherCatV1.15B25,2013-08-03 04:00:00,
2013-08-02 21:01:00,59.0,57.6,30.18,SSE,166,0.0,0.0,95,0.00,,,0.07,WeatherCatV1.15B25,2013-08-03 04:01:00,
2013-08-02 21:06:00,59.0,57.6,30.18,SE,146,0.0,0.0,95,0.00,,,0.07,WeatherCatV1.15B25,2013-08-03 04:06:00,
2013-08-02 21:11:00,58.9,57.5,30.18,SE,136,0.0,1.0,95,0.00,,,0.07,WeatherCatV1.15B25,2013-08-03 04:11:00,
2013-08-02 21:16:00,58.9,57.5,30.18,SE,135,1.0,1.0,95,0.00,,,0.07,WeatherCatV1.15B25,2013-08-03 04:16:00,
2013-08-02 21:21:00,58.8,57.4,30.18,SE,134,0.0,1.0,95,0.00,,,0.07,WeatherCatV1.15B25,2013-08-03 04:21:00,
2013-08-02 21:26:00,58.8,57.4,30.18,SE,134,0.0,0.0,95,0.00,,,0.07,WeatherCatV1.15B25,2013-08-03 04:26:00,
2013-08-02 21:31:00,58.8,57.4,30.18,ESE,105,1.0,1.0,95,0.00,,,0.07,WeatherCatV1.15B25,2013-08-03 04:31:00,
2013-08-02 21:36:00,58.8,57.4,30.18,East,86,0.0,1.0,95,0.00,,,0.07,WeatherCatV1.15B25,2013-08-03 04:36:00,
2013-08-02 21:41:00,58.8,57.4,30.19,East,88,0.0,1.0,95,0.00,,,0.07,WeatherCatV1.15B25,2013-08-03 04:41:00,
2013-08-02 21:46:00,58.8,57.4,30.18,East,92,1.0,1.0,95,0.00,,,0.07,WeatherCatV1.15B25,2013-08-03 04:46:00,
2013-08-02 21:51:00,58.7,57.3,30.19,East,88,1.0,2.0,95,0.00,,,0.07,WeatherCatV1.15B25,2013-08-03 04:51:00,
2013-08-02 21:56:00,58.7,57.3,30.18,East,87,0.0,1.0,95,0.00,,,0.07,WeatherCatV1.15B25,2013-08-03 04:56:00,
2013-08-02 22:01:00,58.6,57.2,30.18,ESE,119,0.0,1.0,95,0.00,,,0.07,WeatherCatV1.15B25,2013-08-03 05:01:00,
2013-08-02 22:06:00,58.6,57.2,30.18,SE,132,1.0,3.0,95,0.00,,,0.07,WeatherCatV1.15B25,2013-08-03 05:06:00,
2013-08-02 22:11:00,58.5,57.1,30.18,East,79,0.0,1.0,95,0.00,,,0.07,WeatherCatV1.15B25,2013-08-03 05:11:00,
2013-08-02 22:16:00,58.4,57.0,30.18,ESE,121,1.0,1.0,95,0.00,,,0.07,WeatherCatV1.15B25,2013-08-03 05:16:00,
2013-08-02 22:21:00,58.4,57.0,30.18,SE,124,0.0,1.0,95,0.00,,,0.07,WeatherCatV1.15B25,2013-08-03 05:21:00,
2013-08-02 22:26:00,58.4,57.3,30.18,SE,139,2.0,3.0,96,0.00,,,0.07,WeatherCatV1.15B25,2013-08-03 05:26:00,
2013-08-02 22:31:00,58.3,57.2,30.18,ESE,111,0.0,1.0,96,0.00,,,0.07,WeatherCatV1.15B25,2013-08-03 05:31:00,
2013-08-02 22:36:00,58.3,57.2,30.18,East,80,1.0,3.0,96,0.00,,,0.07,WeatherCatV1.15B25,2013-08-03 05:36:00,
2013-08-02 22:41:00,58.2,57.1,30.18,ESE,110,0.0,0.0,96,0.00,,,0.07,WeatherCatV1.15B25,2013-08-03 05:41:00,
2013-08-02 22:46:00,58.2,57.1,30.18,ESE,108,0.0,1.0,96,0.00,,,0.07,WeatherCatV1.15B25,2013-08-03 05:46:00,
2013-08-02 22:51:00,58.2,57.1,30.18,ESE,108,0.0,1.0,96,0.00,,,0.07,WeatherCatV1.15B25,2013-08-03 05:51:00,
2013-08-02 22:56:00,58.2,57.1,30.18,SE,128,0.0,1.0,96,0.00,,,0.07,WeatherCatV1.15B25,2013-08-03 05:56:00,
2013-08-02 23:01:00,58.2,57.1,30.18,SE,128,0.0,1.0,96,0.00,,,0.07,WeatherCatV1.15B25,2013-08-03 06:01:00,
2013-08-02 23:06:00,58.2,57.1,30.18,SE,128,0.0,0.0,96,0.00,,,0.07,WeatherCatV1.15B25,2013-08-03 06:06:00,
2013-08-02 23:11:00,58.2,57.1,30.18,SE,129,0.0,0.0,96,0.00,,,0.07,WeatherCatV1.15B25,2013-08-03 06:11:00,
2013-08-02 23:16:00,58.2,57.1,30.18,SE,128,0.0,0.0,96,0.00,,,0.07,WeatherCatV1.15B25,2013-08-03 06:16:00,
2013-08-02 23:21:00,58.1,57.0,30.18,SE,128,0.0,0.0,96,0.00,,,0.07,WeatherCatV1.15B25,2013-08-03 06:21:00,
2013-08-02 23:26:00,58.2,57.1,30.18,SE,129,1.0,1.0,96,0.00,,,0.07,WeatherCatV1.15B25,2013-08-03 06:26:00,
2013-08-02 23:31:00,58.1,57.0,30.18,SE,128,0.0,1.0,96,0.00,,,0.07,WeatherCatV1.15B25,2013-08-03 06:31:00,
2013-08-02 23:36:00,58.1,57.0,30.17,ENE,71,0.0,1.0,96,0.00,,,0.07,WeatherCatV1.15B25,2013-08-03 06:36:00,
2013-08-02 23:41:00,58.1,57.0,30.18,ENE,70,0.0,1.0,96,0.00,,,0.07,WeatherCatV1.15B25,2013-08-03 06:41:00,
2013-08-02 23:46:00,58.1,57.0,30.18,ENE,70,0.0,2.0,96,0.00,,,0.07,WeatherCatV1.15B25,2013-08-03 06:46:00,
2013-08-02 23:51:00,58.0,56.9,30.18,ESE,109,0.0,2.0,96,0.00,,,0.07,WeatherCatV1.15B25,2013-08-03 06:51:00,
2013-08-02 23:56:00,58.0,56.9,30.18,ESE,117,0.0,1.0,96,0.00,,,0.07,WeatherCatV1.15B25,2013-08-03 06:56:00,